When you browse on this site, cookies collect data to enhance your experience and personalize the content and advertising you see.
Visit our Privacy Policy to learn more. By continuing to use the site, you agree to this use of cookies and data.
  • En España
  • Lista de países
  • Para 7 días
  • Temperatura del agua
  • El tiempo en el mapa
  • Informadores
  • user-avatar
    Iniciar sesión

    Tiempo cada hora Akra

    Hoy, 28 Febrero, Viernes

    Tiempo Temperatura Precipitaciones Viento Presión Humedad
    00:00 +30°C° 0 mm 3 mps 757 mmHg 81%
    01:00 +30°C° 0 mm 3 mps 756 mmHg 82%
    02:00 +29°C° 0 mm 3 mps 756 mmHg 83%
    03:00 +29°C° 0 mm 3 mps 756 mmHg 84%
    04:00 +29°C° 0 mm 3 mps 756 mmHg 85%
    05:00 +29°C° 0 mm 3 mps 756 mmHg 85%
    06:00 +29°C° 0 mm 3 mps 756 mmHg 86%
    07:00 +30°C° 0 mm 3 mps 757 mmHg 78%
    08:00 +31°C° 0 mm 3 mps 758 mmHg 70%
    09:00 +34°C° 0 mm 4 mps 758 mmHg 63%
    10:00 +35°C° 0 mm 4 mps 758 mmHg 56%
    11:00 +37°C° 0 mm 4 mps 757 mmHg 50%
    12:00 +38°C° 0 mm 4 mps 757 mmHg 44%
    13:00 +37°C° 0 mm 5 mps 756 mmHg 48%
    14:00 +38°C° 0 mm 6 mps 755 mmHg 52%
    15:00 +36°C° 0 mm 7 mps 754 mmHg 55%
    16:00 +35°C° 0 mm 7 mps 755 mmHg 59%
    17:00 +34°C° 0 mm 6 mps 755 mmHg 62%
    18:00 +33°C° 0 mm 6 mps 755 mmHg 66%
    19:00 +33°C° 0 mm 6 mps 756 mmHg 68%
    20:00 +32°C° 0 mm 6 mps 756 mmHg 70%
    21:00 +32°C° 0 mm 6 mps 757 mmHg 72%
    22:00 +32°C° 0 mm 6 mps 757 mmHg 74%
    23:00 +30°C° 0 mm 5 mps 757 mmHg 75%

    Mañana, 29 Febrero, Sábado

    Tiempo Temperatura Precipitaciones Viento Presión Humedad
    00:00 +30°C° 0 mm 5 mps 756 mmHg 77%
    01:00 +30°C° 0 mm 4 mps 756 mmHg 78%
    02:00 +30°C° 0 mm 4 mps 756 mmHg 79%
    03:00 +29°C° 0 mm 4 mps 755 mmHg 81%
    04:00 +29°C° 0 mm 4 mps 755 mmHg 82%
    05:00 +29°C° 0 mm 4 mps 755 mmHg 83%
    06:00 +29°C° 0 mm 4 mps 755 mmHg 84%
    07:00 +30°C° 0 mm 4 mps 756 mmHg 77%
    08:00 +32°C° 0 mm 5 mps 757 mmHg 70%
    09:00 +34°C° 0 mm 5 mps 757 mmHg 63%
    10:00 +35°C° 0 mm 5 mps 757 mmHg 57%
    11:00 +37°C° 0 mm 5 mps 756 mmHg 50%
    12:00 +39°C° 0 mm 5 mps 756 mmHg 44%
    13:00 +39°C° 0 mm 6 mps 755 mmHg 45%
    14:00 +39°C° 0 mm 7 mps 754 mmHg 46%
    15:00 +39°C° 0 mm 8 mps 754 mmHg 47%
    16:00 +37°C° 0 mm 8 mps 754 mmHg 56%
    17:00 +35°C° 0 mm 8 mps 754 mmHg 64%
    18:00 +33°C° 0 mm 7 mps 754 mmHg 73%
    19:00 +32°C° 0 mm 7 mps 754 mmHg 75%
    20:00 +32°C° 0 mm 7 mps 755 mmHg 77%
    21:00 +32°C° 0 mm 7 mps 756 mmHg 79%
    22:00 +30°C° 0 mm 6 mps 756 mmHg 80%
    23:00 +30°C° 0 mm 6 mps 756 mmHg 81%

    Pasado mañana, 1 Marzo, Domingo

    Tiempo Temperatura Precipitaciones Viento Presión Humedad
    00:00 +30°C° 0 mm 5 mps 756 mmHg 82%
    01:00 +30°C° 0 mm 5 mps 756 mmHg 81%
    02:00 +30°C° 0 mm 6 mps 755 mmHg 81%
    03:00 +30°C° 0 mm 6 mps 755 mmHg 81%
    04:00 +30°C° 0 mm 6 mps 755 mmHg 81%
    05:00 +30°C° 0 mm 6 mps 755 mmHg 81%
    06:00 +30°C° 0 mm 6 mps 756 mmHg 81%
    07:00 +32°C° 0 mm 5 mps 756 mmHg 75%
    08:00 +33°C° 0 mm 5 mps 757 mmHg 69%
    09:00 +34°C° 0 mm 5 mps 757 mmHg 64%
    10:00 +34°C° 0 mm 5 mps 757 mmHg 62%
    11:00 +35°C° 0 mm 6 mps 757 mmHg 61%
    12:00 +35°C° 0 mm 6 mps 756 mmHg 59%
    13:00 +35°C° 0 mm 7 mps 756 mmHg 58%
    14:00 +35°C° 0 mm 7 mps 755 mmHg 58%
    15:00 +35°C° 0 mm 7 mps 754 mmHg 57%
    16:00 +34°C° 0 mm 7 mps 755 mmHg 60%
    17:00 +34°C° 0 mm 7 mps 755 mmHg 63%
    18:00 +33°C° 0 mm 7 mps 755 mmHg 66%
    19:00 +32°C° 0 mm 7 mps 756 mmHg 70%
    20:00 +32°C° 0 mm 6 mps 757 mmHg 74%
    21:00 +30°C° 0 mm 5 mps 757 mmHg 78%
    22:00 +30°C° 0.1 mm 5 mps 757 mmHg 79%
    23:00 +30°C° 0.1 mm 5 mps 757 mmHg 80%

    2 Marzo, Lunes

    Tiempo Temperatura Precipitaciones Viento Presión Humedad
    00:00 +30°C° 0.1 mm 4 mps 757 mmHg 81%
    01:00 +29°C° 0 mm 4 mps 757 mmHg 81%
    02:00 +29°C° 0 mm 4 mps 756 mmHg 81%
    03:00 +29°C° 0 mm 4 mps 756 mmHg 82%
    04:00 +29°C° 0 mm 4 mps 756 mmHg 82%
    05:00 +29°C° 0 mm 3 mps 756 mmHg 83%
    06:00 +29°C° 0 mm 3 mps 756 mmHg 83%
    07:00 +30°C° 0 mm 4 mps 757 mmHg 76%
    08:00 +32°C° 0 mm 4 mps 757 mmHg 69%
    09:00 +34°C° 0 mm 4 mps 758 mmHg 61%
    10:00 +34°C° 0 mm 5 mps 758 mmHg 58%
    11:00 +35°C° 0 mm 5 mps 757 mmHg 55%
    12:00 +36°C° 0 mm 5 mps 757 mmHg 52%
    13:00 +36°C° 0 mm 5 mps 756 mmHg 54%
    14:00 +35°C° 0 mm 5 mps 756 mmHg 55%
    15:00 +35°C° 0 mm 6 mps 755 mmHg 57%
    16:00 +34°C° 0 mm 6 mps 756 mmHg 61%
    17:00 +33°C° 0 mm 5 mps 756 mmHg 65%
    18:00 +32°C° 0 mm 5 mps 756 mmHg 70%
    19:00 +32°C° 0 mm 5 mps 757 mmHg 72%
    20:00 +30°C° 0 mm 4 mps 757 mmHg 75%
    21:00 +30°C° 0 mm 4 mps 758 mmHg 78%
    22:00 +30°C° 0 mm 4 mps 758 mmHg 79%
    23:00 +30°C° 0 mm 3 mps 758 mmHg 80%

    3 Marzo, Martes

    Tiempo Temperatura Precipitaciones Viento Presión Humedad
    00:00 +29°C° 0 mm 3 mps 758 mmHg 81%
    01:00 +29°C° 0 mm 3 mps 757 mmHg 82%
    02:00 +29°C° 0 mm 3 mps 757 mmHg 83%
    03:00 +29°C° 0 mm 3 mps 756 mmHg 84%
    04:00 +29°C° 0 mm 3 mps 757 mmHg 85%
    05:00 +28°C° 0 mm 3 mps 757 mmHg 86%
    06:00 +28°C° 0 mm 3 mps 757 mmHg 87%
    07:00 +30°C° 0 mm 3 mps 758 mmHg 78%
    08:00 +31°C° 0 mm 3 mps 758 mmHg 69%
    09:00 +34°C° 0 mm 3 mps 759 mmHg 61%
    10:00 +35°C° 0 mm 4 mps 758 mmHg 57%
    11:00 +36°C° 0 mm 4 mps 758 mmHg 54%
    12:00 +37°C° 0 mm 5 mps 757 mmHg 50%
    13:00 +36°C° 0 mm 5 mps 757 mmHg 51%
    14:00 +36°C° 0 mm 5 mps 756 mmHg 52%
    15:00 +36°C° 0 mm 5 mps 755 mmHg 53%
    16:00 +35°C° 0 mm 5 mps 755 mmHg 59%
    17:00 +33°C° 0 mm 5 mps 755 mmHg 64%
    18:00 +32°C° 0 mm 5 mps 755 mmHg 70%
    19:00 +32°C° 0 mm 4 mps 756 mmHg 72%
    20:00 +32°C° 0 mm 4 mps 757 mmHg 75%
    21:00 +30°C° 0 mm 4 mps 758 mmHg 77%
    22:00 +30°C° 0 mm 3 mps 758 mmHg 79%
    23:00 +30°C° 0 mm 3 mps 758 mmHg 80%

    4 Marzo, Miércoles

    Tiempo Temperatura Precipitaciones Viento Presión Humedad
    00:00 +30°C° 0 mm 3 mps 758 mmHg 82%
    01:00 +29°C° 0 mm 3 mps 758 mmHg 82%
    02:00 +29°C° 0 mm 3 mps 757 mmHg 82%
    03:00 +29°C° 0 mm 2 mps 757 mmHg 82%
    04:00 +29°C° 0 mm 2 mps 757 mmHg 82%
    05:00 +29°C° 0 mm 2 mps 757 mmHg 83%
    06:00 +29°C° 0 mm 2 mps 757 mmHg 83%
    07:00 +30°C° 0 mm 2 mps 758 mmHg 76%
    08:00 +31°C° 0 mm 3 mps 758 mmHg 68%
    09:00 +34°C° 0 mm 3 mps 758 mmHg 60%
    10:00 +35°C° 0 mm 4 mps 758 mmHg 56%
    11:00 +36°C° 0 mm 4 mps 757 mmHg 51%
    12:00 +39°C° 0 mm 5 mps 757 mmHg 46%
    13:00 +38°C° 0 mm 6 mps 756 mmHg 49%
    14:00 +38°C° 0 mm 6 mps 756 mmHg 52%
    15:00 +36°C° 0 mm 7 mps 755 mmHg 55%
    16:00 +35°C° 0.2 mm 6 mps 755 mmHg 59%
    17:00 +34°C° 0.2 mm 5 mps 755 mmHg 64%
    18:00 +33°C° 0.2 mm 3 mps 756 mmHg 69%
    19:00 +31°C° 0.1 mm 3 mps 756 mmHg 71%
    20:00 +31°C° 0.1 mm 3 mps 757 mmHg 74%
    21:00 +30°C° 0.1 mm 3 mps 757 mmHg 76%
    22:00 +30°C° 0 mm 3 mps 757 mmHg 77%
    23:00 +30°C° 0 mm 3 mps 757 mmHg 78%
    Mostrar más